CAPE
79 124 212 258 313 223 96 185 392 464 376 432 468 548 614 657 566 790 919 814 687 806 599 754 774 557 644 639 387 274 519 140 243 407 582 18 3 0 0 0 0 0 0
58 104 151 172 383 372 287 82 81 468 506 651 727 666 721 646 719 685 865 1270 900 821 839 543 607 486 691 681 817 722 739 517 484 426 491 100 1 0 0 0 0 0 0
6 139 153 83 230 421 345 299 219 197 404 628 706 680 561 578 679 705 839 917 820 773 848 733 740 545 817 676 656 876 817 621 339 288 476 276 3 1 0 0 0 0 0
23 88 166 187 207 295 392 382 354 282 258 78 488 650 519 421 415 582 682 665 695 781 875 797 928 888 883 934 822 844 614 587 642 640 550 262 78 2 0 0 0 0 0
90 81 105 233 300 313 300 367 403 368 289 211 218 586 606 435 426 467 609 783 901 960 997 1034 1010 978 667 784 1140 1141 690 617 606 647 574 306 140 4 0 0 0 0 0
0 12 13 8 7 149 208 288 324 369 411 378 341 328 456 663 578 364 396 820 989 1055 1119 1137 1038 644 632 435 274 263 367 718 647 373 450 362 411 75 4 1 0 0 0
2 2 2 0 0 0 0 0 175 277 387 434 474 531 569 642 549 571 122 710 1052 1055 1153 1169 960 894 558 709 8 0 0 0 0 219 398 372 226 115 64 6 0 0 0
11 2 2 2 5 1 0 0 19 103 185 297 431 530 567 602 331 200 3 105 574 791 727 570 640 668 786 565 28 0 0 0 0 0 0 0 0 0 1 14 7 0 1
9 6 5 2 0 1 2 0 22 13 58 169 229 294 311 262 1 1 1 186 447 319 242 225 84 145 92 4 32 0 0 0 0 0 0 0 0 0 0 0 4 3 2
18 2 0 0 1 0 0 19 36 45 36 1 2 3 1 3 1 1 2 12 170 155 6 0 0 0 1 2 16 1 0 0 0 0 0 0 0 0 0 0 0 4 0
9 54 2 2 6 13 32 17 1 1 1 1 2 2 2 3 4 0 0 3 3 2 4 3 2 2 6 5 1 1 1 0 0 0 0 0 0 0 0 0 0 0 0
63 15 1 1 2 1 0 1 1 0 1 1 1 2 3 3 10 6 1 1 2 4 2 2 1 0 0 0 1 2 0 0 0 1 0 0 0 0 0 0 0 1 1
0 1 0 0 1 1 1 1 2 0 2 3 1 1 3 3 1 2 0 1 0 2 1 0 0 0 0 0 0 0 0 0 0 2 2 1 2 3 2 0 0 0 0
0 0 0 1 0 0 0 1 1 1 4 4 2 1 1 2 1 1 1 1 1 2 1 1 0 0 0 0 2 2 4 1 0 0 1 2 4 2 0 0 0 0 0
0 1 0 0 0 0 0 0 0 0 0 2 3 2 1 1 0 1 0 0 0 0 0 1 0 1 1 1 2 2 1 1 0 1 1 1 0 0 0 0 0 0 0
0 0 0 0 0 0 0 0 0 0 0 1 0 0 2 1 1 1 1 1 0 0 0 1 1 1 0 1 1 1 1 1 1 0 0 0 0 0 0 0 0 0 0
0 0 0 0 0 0 0 0 0 0 0 1 1 2 1 1 1 1 0 0 0 0 1 1 1 2 4 2 0 0 0 0 0 0 0 0 0 0 0 0 0 0 0
0 0 0 0 0 0 0 0 0 0 0 0 0 0 0 1 1 0 0 0 0 0 0 0 0 0 0 0 0 0 0 0 0 0 0 0 0 0 0 0 0 0 0
0 0 0 0 0 0 0 0 0 0 0 0 0 0 1 1 0 0 0 0 0 0 0 0 0 0 0 0 0 0 0 0 0 0 0 0 0 0 0 0 0 0 0
0 0 0 0 0 0 0 0 0 0 0 0 0 0 1 1 1 0 0 0 0 0 0 0 0 0 0 0 0 0 0 0 0 0 0 0 0 0 0 0 0 0 0
0 0 0 0 0 0 0 0 0 0 0 0 0 0 0 0 0 0 0 0 0 0 0 0 0 0 0 0 0 0 0 0 0 0 0 0 0 0 0 0 0 0 0
0 0 0 0 0 0 0 0 0 0 0 0 0 0 0 0 0 0 0 0 0 0 0 0 0 0 0 0 0 0 0 0 0 0 0 0 0 0 0 0 0 0 0
0 0 0 0 0 0 0 0 0 0 0 0 0 0 0 0 0 0 0 0 0 0 0 0 0 0 0 0 0 0 0 0 0 0 0 0 0 0 0 0 0 0 0
0 0 0 0 0 0 0 0 0 0 0 0 0 0 0 0 0 0 0 0 0 0 0 0 0 0 0 0 0 0 0 0 0 0 0 0 0 0 0 0 0 0 0
0 0 0 0 0 0 0 0 0 0 0 0 0 0 0 0 0 0 0 0 0 0 0 0 0 0 0 0 0 0 0 0 0 0 0 0 0 0 0 0 0 0 0
0 0 0 0 0 0 0 0 0 0 0 0 0 0 0 0 0 0 0 0 0 0 0 0 0 0 0 0 0 0 0 0 0 0 0 0 0 0 0 0 0 0 0
CIN
-264 -226 -177 -184 -175 -185 -209 -213 -197 -188 -209 -197 -188 -179 -164 -144 -145 -111 -100 -97 -96 -88 -110 -92 -82 -110 -87 -101 -123 -133 -105 -136 -61 -94 -95 -123 0 0 0 0 0 0 0
-259 -235 -219 -187 -166 -146 -156 -198 -230 -174 -185 -175 -170 -168 -156 -153 -126 -119 -97 -68 -80 -75 -78 -90 -80 -73 -83 -83 -77 -79 -70 -88 -68 -55 -77 -70 0 0 0 0 0 0 0
-258 -207 -232 -229 -172 -132 -149 -165 -172 -181 -170 -166 -161 -162 -173 -173 -148 -138 -113 -98 -99 -96 -82 -76 -71 -86 -67 -76 -83 -65 -71 -79 -92 -77 -58 -71 0 0 0 0 0 0 0
-278 -223 -187 -196 -201 -169 -132 -133 -140 -158 -159 -201 -154 -146 -164 -182 -168 -131 -123 -117 -100 -83 -81 -75 -60 -58 -56 -57 -60 -64 -82 -72 -62 -53 -55 -61 -86 0 0 0 0 0 0
-233 -210 -200 -168 -155 -162 -146 -122 -116 -125 -129 -152 -158 -123 -129 -139 -122 -138 -124 -96 -74 -63 -61 -55 -56 -68 -90 -75 -39 -43 -67 -70 -55 -41 -35 -51 -71 0 0 0 0 0 0
0 -205 -225 -256 -22 -139 -130 -122 -99 -93 -100 -100 -98 -103 -96 -83 -110 -127 -116 -71 -57 -45 -43 -53 -65 -95 -96 -120 -151 -142 -110 -52 -52 -58 -42 -35 -30 -53 0 0 0 0 0
-256 0 0 0 0 0 0 0 -93 -73 -83 -90 -85 -76 -81 -91 -99 -105 -210 -86 -53 -49 -41 -42 -58 -66 -105 -78 -148 0 0 0 0 -76 -26 -26 -37 -34 -42 0 0 0 0
-133 -2 0 0 0 0 0 0 -45 -78 -83 -93 -97 -96 -88 -105 -139 -164 -14 -182 -83 -73 -79 -96 -82 -84 -70 -83 -171 0 0 0 0 0 0 0 0 0 0 -24 -3 0 0
-149 -83 -11 -2 0 0 -27 0 -121 -128 -111 -97 -90 -109 -112 -97 0 0 0 -133 -87 -120 -124 -122 -187 -145 -160 -45 -172 0 0 0 0 0 0 0 0 0 0 0 0 0 0
-161 -13 0 0 0 0 0 -102 -68 -48 -116 0 0 0 0 0 0 0 0 -194 -111 -115 -206 0 0 0 0 0 -78 0 0 0 0 0 0 0 0 0 0 0 0 0 0
-278 -55 -59 -65 -21 -77 -52 -58 0 -49 0 0 0 0 0 0 0 0 0 0 0 0 -8 0 0 0 0 0 0 0 0 0 0 0 0 0 0 0 0 0 0 0 0
-131 -40 0 0 0 0 0 0 0 0 0 0 0 0 0 0 0 0 0 0 0 0 0 0 0 0 0 0 0 0 0 0 0 0 0 0 0 0 0 0 0 0 0
0 0 0 0 0 0 0 0 0 0 0 0 0 0 0 0 0 0 0 0 0 0 0 0 0 0 0 0 0 0 0 0 0 0 0 0 0 0 0 0 0 0 0
0 0 0 0 0 0 0 0 0 0 0 0 0 0 0 0 0 0 0 0 0 0 0 0 0 0 0 0 0 0 0 0 0 0 0 0 0 0 0 0 0 0 0
0 0 0 0 0 0 0 0 0 0 0 0 0 0 0 0 0 0 0 0 0 0 0 0 0 0 0 0 0 0 0 0 0 0 0 0 0 0 0 0 0 0 0
0 0 0 0 0 0 0 0 0 0 0 0 0 0 0 0 0 0 0 0 0 0 0 0 0 0 0 0 0 0 0 0 0 0 0 0 0 0 0 0 0 0 0
0 0 0 0 0 0 0 0 0 0 0 0 0 0 0 0 0 0 0 0 0 0 0 0 0 0 0 0 0 0 0 0 0 0 0 0 0 0 0 0 0 0 0
0 0 0 0 0 0 0 0 0 0 0 0 0 0 0 0 0 0 0 0 0 0 0 0 0 0 0 0 0 0 0 0 0 0 0 0 0 0 0 0 0 0 0
0 0 0 0 0 0 0 0 0 0 0 0 0 0 0 0 0 0 0 0 0 0 0 0 0 0 0 0 0 0 0 0 0 0 0 0 0 0 0 0 0 0 0
0 0 0 0 0 0 0 0 0 0 0 0 0 0 0 0 0 0 0 0 0 0 0 0 0 0 0 0 0 0 0 0 0 0 0 0 0 0 0 0 0 0 0
0 0 0 0 0 0 0 0 0 0 0 0 0 0 0 0 0 0 0 0 0 0 0 0 0 0 0 0 0 0 0 0 0 0 0 0 0 0 0 0 0 0 0
0 0 0 0 0 0 0 0 0 0 0 0 0 0 0 0 0 0 0 0 0 0 0 0 0 0 0 0 0 0 0 0 0 0 0 0 0 0 0 0 0 0 0
0 0 0 0 0 0 0 0 0 0 0 0 0 0 0 0 0 0 0 0 0 0 0 0 0 0 0 0 0 0 0 0 0 0 0 0 0 0 0 0 0 0 0
0 0 0 0 0 0 0 0 0 0 0 0 0 0 0 0 0 0 0 0 0 0 0 0 0 0 0 0 0 0 0 0 0 0 0 0 0 0 0 0 0 0 0
0 0 0 0 0 0 0 0 0 0 0 0 0 0 0 0 0 0 0 0 0 0 0 0 0 0 0 0 0 0 0 0 0 0 0 0 0 0 0 0 0 0 0
0 0 0 0 0 0 0 0 0 0 0 0 0 0 0 0 0 0 0 0 0 0 0 0 0 0 0 0 0 0 0 0 0 0 0 0 0 0 0 0 0 0 0
Wind_Speed
11 11 10 9 8 6 6 7 7 5 6 7 7 6 5 5 6 5 5 5 5 4 3 3 4 3 3 3 3 3 3 3 3 1 1 2 4 5 4 3 3 3 3
8 9 11 9 9 8 8 6 6 7 6 7 6 5 6 7 8 8 7 6 6 6 6 4 6 3 5 4 3 4 4 4 3 4 3 3 3 4 3 3 3 2 3
10 10 10 10 10 10 8 7 6 6 6 5 5 6 6 7 7 7 7 6 7 7 7 6 7 5 5 4 4 5 4 4 4 3 2 2 1 2 2 2 3 3 3
7 7 9 11 12 11 10 8 8 7 6 6 5 6 6 6 6 6 7 7 7 7 7 7 7 7 7 6 5 6 4 5 4 4 3 3 2 3 3 4 4 4 4
5 7 11 8 7 7 8 9 8 7 7 7 6 6 6 5 6 7 6 7 7 8 8 8 9 9 11 9 5 5 5 5 4 5 4 3 3 3 5 4 5 3 5
5 2 4 4 2 5 7 8 7 8 8 8 9 9 8 8 10 13 9 8 8 9 8 8 7 8 10 11 11 9 6 6 6 4 4 5 6 3 4 4 4 4 4
6 4 3 4 4 2 4 4 5 8 8 9 9 10 11 10 12 13 13 8 8 8 8 6 6 6 8 6 5 4 5 6 2 3 6 5 3 3 3 6 6 5 4
4 7 5 5 5 3 2 4 4 5 8 8 10 10 9 9 11 13 11 8 7 8 8 6 7 7 7 7 7 6 3 2 2 2 2 1 2 3 4 2 1 4 3
4 4 5 5 4 4 5 4 3 4 5 6 4 8 8 4 2 2 7 7 7 8 6 5 4 5 3 6 8 8 5 3 7 11 12 9 8 6 3 3 3 2 2
2 4 5 5 6 5 5 4 3 4 4 3 2 3 1 6 7 5 2 2 5 3 3 2 6 4 5 5 6 7 7 5 6 6 4 6 7 8 11 5 0 3 3
4 5 4 5 5 5 5 3 2 2 4 4 5 6 7 4 3 7 6 1 1 1 2 1 2 7 6 7 6 5 4 8 7 5 4 4 5 6 6 6 5 1 3
1 4 5 5 3 3 4 4 3 2 4 5 6 5 4 4 6 7 6 4 3 1 1 2 2 6 7 5 2 4 10 8 5 4 4 4 4 4 4 5 5 6 5
5 6 5 6 5 5 5 4 3 4 3 3 2 4 3 1 4 8 10 6 7 4 4 7 7 9 10 10 11 12 8 5 6 5 2 1 3 2 1 3 4 4 5
7 6 5 5 5 6 4 4 4 4 3 3 3 3 2 2 3 4 4 5 9 7 7 5 8 9 11 7 6 6 4 3 3 4 2 2 2 2 1 2 2 4 5
5 5 5 5 5 6 6 5 3 4 2 3 3 3 1 2 2 3 2 4 3 4 3 2 3 2 5 4 3 4 3 3 4 3 3 2 2 3 2 2 2 0 2
5 3 3 3 4 3 4 5 12 9 8 8 9 4 3 5 4 6 11 9 9 5 2 3 2 3 3 2 3 3 3 4 3 4 3 2 1 1 1 1 1 1 1
4 4 3 3 3 4 3 2 5 5 12 13 12 12 11 7 8 8 7 7 6 3 3 2 3 3 3 3 3 2 2 2 3 3 4 3 3 1 1 0 1 1 2
4 6 3 3 3 3 2 2 2 3 2 2 8 8 9 9 8 7 7 3 2 3 2 3 3 3 2 3 2 3 3 3 3 2 1 1 1 1 1 1 1 2 3
4 2 3 3 2 3 3 3 2 2 2 2 2 3 5 6 5 4 4 1 1 2 2 2 3 3 2 2 2 3 3 3 3 3 2 2 2 1 2 2 1 2 4
3 5 4 3 3 3 3 3 2 2 3 2 1 1 2 1 0 0 0 1 2 1 2 2 2 2 2 2 3 3 3 3 2 2 3 2 2 1 2 2 2 3 2
2 3 6 3 3 3 3 2 2 2 2 2 2 3 6 3 2 2 2 2 2 1 1 1 1 2 2 2 3 3 2 2 2 2 3 2 2 2 1 2 2 2 3
3 3 4 4 4 4 4 4 4 4 3 3 3 2 8 3 3 3 3 4 4 4 3 3 3 3 4 4 3 3 3 3 3 3 3 2 2 2 3 3 3 3 3
4 5 5 3 3 3 3 4 3 4 5 4 4 4 4 5 5 5 4 4 4 4 4 4 4 4 4 4 4 4 4 4 3 3 4 4 4 3 3 2 3 3 3
5 5 5 5 5 5 5 6 5 6 5 5 5 5 6 5 5 6 6 4 4 4 4 4 4 5 5 5 4 4 5 4 3 4 6 4 4 4 3 3 3 3 3
5 4 4 3 4 3 4 5 5 6 6 5 5 5 4 5 5 6 6 5 5 5 5 4 3 4 7 8 7 8 8 10 8 6 5 6 6 6 5 4 4 3 4
5 5 4 3 4 4 4 4 6 5 6 5 5 4 5 6 7 7 6 6 6 6 6 5 6 9 9 8 9 9 7 9 9 10 7 6 6 5 5 5 7 5 5
Wind_Direction
198 196 202 196 194 199 203 206 200 195 198 204 203 207 205 215 207 216 216 207 220 236 244 229 233 219 241 245 228 229 232 198 242 276 177 183 175 176 155 140 137 140 126
208 196 201 200 188 198 207 215 210 206 201 202 201 205 208 219 206 207 222 210 214 224 234 233 247 231 237 230 233 234 230 213 222 254 188 192 204 197 180 169 191 166 175
187 202 193 195 192 204 212 206 206 223 225 212 201 206 210 211 208 208 216 222 220 223 224 220 237 219 238 233 232 245 244 240 219 232 245 183 148 156 143 192 206 194 202
186 188 201 200 201 199 203 206 205 207 216 219 218 221 216 213 207 223 217 221 225 231 229 223 232 223 228 235 230 239 247 249 232 233 233 208 179 163 175 194 213 213 206
172 201 213 204 204 197 196 207 208 200 216 225 226 225 224 225 230 220 215 224 226 236 237 231 227 224 215 220 220 234 225 231 229 228 240 224 200 182 207 186 211 181 217
114 169 163 165 246 215 217 200 204 213 208 211 223 233 236 230 220 217 214 226 225 228 234 234 239 239 235 224 220 219 216 212 224 213 231 241 242 226 199 190 175 172 239
130 146 150 107 106 210 259 238 221 225 222 219 226 225 229 232 221 221 218 229 232 234 237 240 249 243 225 224 197 162 100 64 12 236 245 239 254 214 207 188 188 190 211
150 175 167 169 197 190 247 265 282 235 224 224 224 226 232 235 218 224 215 219 227 226 227 240 248 254 230 207 185 190 182 61 327 237 218 121 307 297 261 304 241 184 83
195 199 181 183 165 192 221 240 260 263 244 224 233 218 213 223 66 309 240 214 220 228 214 223 250 263 285 198 202 200 181 142 84 91 97 93 71 38 285 179 214 176 144
314 237 195 197 211 213 223 218 216 242 254 233 127 58 60 118 72 61 11 265 243 237 227 156 70 30 322 270 228 202 206 193 159 137 111 77 62 49 43 40 286 196 124
303 255 215 187 207 219 224 183 202 168 115 101 96 83 71 49 57 51 26 151 246 325 270 277 1 338 321 293 267 204 213 148 157 138 110 80 60 50 43 39 28 54 139
64 80 69 77 84 101 105 82 75 108 104 107 109 91 83 83 21 19 38 16 299 255 68 70 22 17 42 55 112 103 110 104 99 93 90 78 65 40 35 46 38 54 45
87 80 78 70 60 49 80 92 83 68 66 97 100 105 100 49 100 60 49 54 79 88 90 106 92 73 59 62 65 86 97 107 125 132 118 102 87 124 98 39 46 72 64
108 95 82 77 69 41 50 50 65 54 78 83 74 94 89 66 50 68 57 81 82 93 111 90 100 93 89 84 66 69 86 106 107 109 105 101 106 137 113 143 99 91 91
96 97 85 84 78 77 59 26 63 70 5 56 86 94 25 110 89 59 89 68 85 101 97 90 73 60 79 83 85 91 79 80 95 85 114 119 155 140 150 136 135 97 94
111 108 114 111 92 97 102 93 54 61 58 49 47 70 70 55 93 101 114 118 109 70 70 61 46 68 87 91 84 70 55 91 91 99 113 108 173 138 207 188 228 226 103
119 121 116 111 128 138 122 110 109 67 67 47 42 47 58 78 71 66 66 78 62 72 90 106 132 116 109 112 112 96 105 89 105 109 141 174 167 164 155 161 199 216 145
105 125 131 134 126 122 122 87 92 121 108 64 47 53 53 58 68 45 13 2 45 49 91 128 115 101 124 129 125 112 123 119 110 108 142 168 139 137 115 109 165 157 150
116 112 102 96 110 115 109 118 138 111 95 110 115 79 70 76 69 42 2 46 65 68 84 99 110 125 129 126 108 108 123 126 117 124 122 117 129 113 106 102 119 142 135
106 125 118 129 136 129 137 132 123 124 135 143 141 130 119 60 344 255 195 125 120 135 154 151 159 154 156 157 145 145 143 137 143 153 134 140 138 129 144 148 154 148 164
144 146 147 139 152 160 159 158 152 151 164 176 202 200 180 189 198 213 247 244 231 238 216 220 196 205 191 180 171 176 176 150 165 177 168 155 155 171 169 163 160 151 149
158 169 181 182 176 181 190 194 195 206 210 209 198 196 175 207 208 205 221 235 231 231 224 219 224 206 194 185 182 189 193 192 186 175 164 174 175 166 154 147 152 145 155
178 183 193 196 201 204 210 221 223 227 227 225 216 192 186 210 213 216 225 228 234 237 233 224 231 202 195 197 194 195 197 207 203 183 186 186 180 175 161 170 172 174 190
184 181 188 199 203 217 230 223 218 220 222 215 215 212 209 211 217 220 226 233 243 254 242 235 222 210 203 207 205 208 221 209 192 208 207 196 181 164 174 183 191 201 207
200 203 206 205 218 241 261 236 230 230 231 233 238 231 235 227 221 224 229 221 229 242 241 228 225 220 222 220 217 212 212 205 210 193 194 189 187 187 196 195 185 195 204
204 213 221 222 234 238 240 238 231 223 231 239 246 242 232 229 235 225 224 224 226 229 235 226 221 223 223 224 229 228 218 220 210 204 190 187 189 194 202 218 203 187 198